Powrót do katalogu

COSMOS 1130

AktywnyMilitariaLEO
NORAD 11538·PAYLOAD·🇷🇺 Russia

Wystrzelony Sep 25, 1979 z Plesetsk Cosmodrome

Loading…

Następne Przeloty (najbliższe 24 godziny)

TLE

ŚwieżeSource: Space-Track

Epoka: Sep 14, 2026, 11:51 UTC

1 11538U 79084A   26257.49412133 -.00000002  00000-0  87020-4 0  9999
2 11538  74.0242 299.5298 0053603 310.8659 116.0011 12.56272458154037

Śledź COSMOS 1130 w czasie rzeczywistym z AllMySat

Download on the App Store